Regional Weather Roundup
Issued by NWS

Home | Current Version | Previous Version | Graphics & Text | Print | Product List | Glossary On
Versions: 1 2 3 4 5 6 7 8 9 10 11 12 13 14 15 16 17 18 19 20 21 22 23 24 25 26 27 28 29 30 31 32 33 34 35 36 37 38 39 40 41 42 43 44 45 46 47 48 49 50
000
ASUS43 KDMX 202001
RWRIA

WEATHER ROUNDUP FOR IOWA
NATIONAL WEATHER SERVICE DES MOINES IA
200 PM CST MON FEB 20 2017

NOTE: "FAIR" INDICATES FEW OR NO CLOUDS BELOW 12,000 FEET WITH NO
SIGNIFICANT WEATHER AND/OR OBSTRUCTIONS TO VISIBILITY.

* - THESE STATIONS ARE NOT NWS STATIONS...THUS NOT UNDER NWS
QUALITY CONTROL.  THEY ALSO DO NOT REPORT WEATHER SUCH
AS PRECIPITATION OR FOG.

IAZ001>003-012>014-020>022-031>034-043>046-202100-
   NORTHWEST IOWA

CITY           SKY/WX    TMP DP  RH WIND       PRES   REMARKS
CARROLL *      LGT RAIN  57  57 100 SW16      29.74R
CHEROKEE *     CLOUDY    57  57 100 SW9       29.70F
DENISON *      CLOUDY    59  59 100 SW8G15    29.70F FOG
LE MARS *      CLOUDY    59  55  88 SW12G17   29.71R
SHELDON *      CLOUDY    57  57 100 SW14G21   29.67S FOG
SIOUX CITY     CLOUDY    62  54  74 W12       29.71S
SPENCER        LGT RAIN  57  56  96 SW12      29.70R FOG
STORM LAKE *   PTSUNNY   57  55  94 SW13G20   29.71S FOG
$$

IAZ055>058-069>071-079>083-090>094-202100-
   SOUTHWEST IOWA

CITY           SKY/WX    TMP DP  RH WIND       PRES   REMARKS
ATLANTIC *     PTSUNNY   59  59 100 S8        29.74F FOG
CLARINDA *     CLOUDY    61  61 100 S10         N/A
COUNCIL BLFS * CLOUDY    59  59 100 SW12      29.75S
CRESTON *      CLOUDY    59  59 100 S14       29.79S
HARLAN  *      CLOUDY    59  59 100 SW10G16   29.77S FOG
LAMONI         CLOUDY    60  57  89 SW16      29.79S
RED OAK *      PTSUNNY   61  59  94 SW8       29.76S
SHENANDOAH *   CLOUDY    61  59  94 SW8       29.77S
$$

IAZ047>049-059>061-072>074-084-202100-
   CENTRAL IOWA

CITY           SKY/WX    TMP DP  RH WIND       PRES   REMARKS
AMES           LGT RAIN  58  58 100 S14       29.75S FOG
ANKENY *       CLOUDY    59  57  94 S14G20    29.77S
BOONE *        CLOUDY    57  57 100 S15G22    29.74S FOG
CHARITON *     CLOUDY    61  57  88 S18       29.78F FOG
DES MOINES     LGT RAIN  61  57  87 S14       29.77S
GRINNELL*      CLOUDY    57  55  92 S14       29.80S
KNOXVILLE *    CLOUDY    61  57  88 S13G21    29.76F
MARSHALLTOWN   CLOUDY    58  57  97 S15       29.76F
NEWTON *       CLOUDY    59  57  94 S14       29.77F
PELLA *        CLOUDY    60  57  91 S9        29.79F
PERRY *        LGT RAIN  58  57  96 S16       29.75R
$$

IAZ004>006-015-016-023>025-035-036-202100-
   NORTH CENTRAL IOWA

CITY           SKY/WX    TMP DP  RH WIND       PRES   REMARKS
ALGONA *       CLOUDY    55  55 100 S17       29.71R FOG
CLARION *      CLOUDY    55  55 100 S16       29.72S FOG
ESTHERVILLE    CLOUDY    54  54 100 S20       29.69R FOG
FORT DODGE *   CLOUDY    55  54  94 S15G22    29.74R
MASON CITY     RAIN      52  51  97 S15       29.73F FOG
FOREST CITY *  RAIN      50  50 100 S10       29.72F
IOWA FALLS *   LGT RAIN  56  55  97 S15       29.75F
$$

IAZ007>011-017>019-026>030-037>042-050>054-066-202100-
   NORTHEAST IOWA

CITY           SKY/WX    TMP DP  RH WIND       PRES   REMARKS
CEDAR RAPIDS   LGT RAIN  57  56  96 S6        29.82F FOG
CHARLES CITY * LGT RAIN  52  52 100 SE15      29.75F VSB 1
CLINTON *      CLOUDY    67  53  61 S21G29    29.87F
DECORAH *      LGT RAIN  52  52 100 SE10G18   29.78F
DUBUQUE        CLOUDY    58  51  78 SE15      29.85F
MONTICELLO *   LGT RAIN  57  54  88 SE12      29.84F
OELWEIN *      LGT RAIN  54  54 100 SE17      29.79F
WATERLOO       RAIN      55  53  93 SE12      29.77F FOG
$$

IAZ064-065-067-068-078-202100-
   EAST CENTRAL IOWA

CITY           SKY/WX    TMP DP  RH WIND       PRES   REMARKS
DAVENPORT      CLOUDY    67  52  58 S17       29.86F
IOWA CITY      LGT RAIN  60  55  83 CALM      29.84F
MUSCATINE *    CLOUDY    66  52  59 S12       29.83F
QUAD CITIES    CLOUDY    69  51  52 S20G29    29.86F
$$

IAZ062-063-075>077-085>089-095>099-202100-
   SOUTHEAST IOWA

CITY           SKY/WX    TMP DP  RH WIND       PRES   REMARKS
BURLINGTON     PTSUNNY   70  53  54 S14       29.83F
FAIRFIELD *    CLOUDY    63  55  77 SE9       29.80F
KEOKUK *       CLOUDY    73  48  40 S15G25    29.82F
OTTUMWA        CLOUDY    63  59  87 S12       29.80F
WASHINGTON *   CLOUDY    64  55  72 S15G25    29.83F
$$

ABBREVIATIONS USED IN REMARKS
   TC - TEMPERATURES IN CELSIUS
  WCI - WIND CHILL INDEX
   HX - HEAT INDEX
  VSB - VISIBILITY
$$




USA.gov is the U.S. government's official web portal to all federal, state and local government web resources and services.